Location: Unspecified
(47.6577°N, 23.5639°E)
Time: 20:38:06
(UTC+03:00)

ISS - Pass Details

Date: 07 February 2017
Orbit: 402 x 409 km, 51.6° (Epoch: 25 May)

Event Time Altitude Azimuth Distance (km) Brightness Sun altitude
Rises 19:40:20 0° 290° (WNW) 2,335 1.3 -21.2°
Reaches altitude 10° 19:42:28 10° 296° (WNW) 1,471 -0.1 -21.6°
Enters shadow 19:44:55 38° 330° (NNW) 633 -2.7 -22.0°
